SCP
0 0 0 0 0 0 0 0 0 0 0 0 0 0 0 0 0 0 0 0 0 0 0 0 0 0 0 0 0 0 0 0 0 0 0 0 0 0 0 0 0 0 0 0
0 0 0 0 0 0 0 0 0 0 0 0 0 0 0 0 0 0 0 0 0 0 0 0 0 0 0 0 0 0 0 0 0 0 0 0 0 0 0 0 0 0 0 0
0 0 0 0 0 0 0 0 0 0 0 0 0 0 0 0 0 0 0 0 0 0 0 0 0 0 0 0 0 0 0 0 0 0 0 0 0 0 0 0 0 0 0 0
0 0 0 0 0 0 0 0 0 0 0 0 0 0 0 0 0 0 0 0 0 0 0 0 0 0 0 0 0 0 0 0 0 0 0 0 0 0 0 0 0 0 0 0
0 0 0 0 0 0 0 0 0 0 0 0 0 0 0 0 0 0 0 0 0 0 0 0 0 0 0 0 0 0 0 0 0 0 0 0 0 0 0 0 0 0 0 0
0 0 0 0 0 0 0 0 0 0 0 0 0 0 0 0 0 0 0 0 0 0 0 0 0 0 0 0 0 0 0 0 0 0 0 0 0 0 0 0 0 0 0 0
0 0 0 0 0 0 0 0 0 0 0 0 0 0 0 0 0 0 0 0 0 0 0 0 0 0 0 0 0 0 0 0 0 0 0 0 0 0 0 0 0 0 0 0
0 0 0 0 0 0 0 0 0 0 0 0 0 0 0 0 0 0 0 0 0 0 0 0 0 0 0 0 0 0 0 0 0 0 0 0 0 0 0 0 0 0 0 0
0 0 0 0 0 -0 -0 -0 0 0 0 0 0 0 0 0 0 0 0 0 0 0 0 0 0 0 0 0 0 0 0 0 0 0 0 0 0 0 0 0 0 0 0 0
0 0 0 0 -0 -0 -0 -0 0 0 0 0 0 0 0 0 0 0 0 0 0 0 0 0 0 0 0 0 0 0 0 0 0 0 0 0 0 0 0 0 0 0 0 0
0 0 0 -0 -0 -0 -0 -0 0 0 0 0 0 0 0 0 0 0 0 0 0 0 0 0 0 0 0 0 0 0 0 0 0 0 0 0 0 0 0 0 0 0 0 0
0 0 0 -0 -0 -0 -0 0 0 0 0 0 0 0 0 0 0 0 0 0 0 0 0 0 0 0 0 0 0 0 0 0 0 0 0 0 0 0 0 0 0 0 0 0
0 0 0 0 0 0 0 0 0 0 0 0 0 0 0 0 0 0 0 0 0 0 0 0 0 0 0 0 0 0 0 0 0 0 0 0 0 0 0 0 0 0 0 0
0 0 0 0 0 0 0 0 0 0 0 0 0 0 0 0 0 0 0 0 0 0 0 0 0 0 0 0 0 0 0 0 0 0 0 0 0 0 0 0 0 0 0 0
0 0 0 0 0 0 0 0 0 0 0 0 0 0 0 0 0 0 0 0 0 0 0 0 0 0 0 0 0 0 0 0 0 0 0 0 0 0 0 0 0 0 0 0
0 0 0 0 0 0 0 0 0 0 -0 0 0 0 0 0 0 0 0 0 0 0 0 0 0 0 0 0 0 0 0 0 0 0 0 0 0 0 0 0 0 0 0 0
0 0 0 0 0 0 0 0 0 -0 -0 0 0 0 0 0 0 0 0 0 0 0 0 0 0 0 0 0 0 0 0 0 0 0 0 0 0 0 0 0 0 0 0 0
0 0 0 0 0 0 0 0 0 -0 -0 0 0 0 0 0 0 0 0 0 0 0 0 0 0 0 0 0 0 0 0 0 0 0 0 0 0 0 0 0 0 0 0 0
0 0 0 0 0 0 0 0 0 0 0 0 0 0 0 0 0 0 0 0 0 0 0 0 0 0 0 0 0 0 0 0 0 0 0 0 0 0 0 0 0 0 0 0
0 0 0 0 0 0 0 0 0 0 0 0 0 0 0 0 0 0 0 0 0 0 0 0 0 0 0 0 0 0 0 0 0 0 0 0 0 0 0 0 0 0 0 0
0 0 0 0 0 0 0 0 0 0 0 0 0 0 0 0 0 0 0 0 0 0 0 0 0 0 0 0 0 0 0 0 0 0 0 0 0 0 0 0 0 0 0 0
0 0 0 0 0 0 0 0 0 0 0 0 0 0 0 0 0 0 0 0 0 0 0 0 0 0 0 0 0 0 0 0 0 0 0 0 0 0 0 0 0 0 0 0
0 0 0 0 0 0 0 0 0 0 0 0 0 0 0 0 0 0 0 0 0 0 0 0 0 0 0 0 0 0 0 0 0 0 0 0 0 0 0 0 0 0 0 0
0 0 0 0 0 0 0 0 0 0 0 0 0 0 0 0 0 0 0 0 0 0 0 0 0 0 0 0 0 0 0 0 0 0 0 0 0 0 0 0 0 0 0 0
0 0 0 0 0 0 0 0 0 0 0 0 0 0 0 0 0 0 0 0 0 0 0 0 0 0 0 0 0 0 0 0 0 0 0 0 0 0 0 0 0 0 0 0
0 0 0 0 0 0 0 0 0 0 0 0 0 0 0 0 0 0 0 0 0 0 0 0 0 0 0 0 0 0 0 -0 -0 0 0 0 0 0 0 0 0 0 0 0
0 0 0 0 0 0 0 0 0 0 0 0 0 0 0 0 0 0 0 0 0 0 0 0 0 0 0 0 0 0 0 -0 0 0 0 0 0 0 0 0 0 0 0 0
Wind_Speed
5 4 3 5 6 7 9 8 9 8 8 9 6 6 5 3 2 2 2 2 2 2 2 2 2 3 3 3 3 2 2 3 3 3 3 3 3 3 3 3 4 4 4 4
3 2 3 7 10 10 11 9 10 8 12 8 5 3 3 4 3 3 3 3 3 3 3 3 3 3 3 3 3 2 2 4 4 3 3 3 4 4 4 4 4 4 4 5
4 4 5 9 10 11 7 8 8 11 11 3 3 5 6 5 5 5 5 4 4 4 4 4 4 3 3 3 3 2 3 4 4 3 4 4 4 4 4 4 4 4 5 5
2 3 7 7 1 6 6 7 9 7 5 4 5 4 3 4 5 5 4 4 4 4 4 3 3 3 3 2 2 3 3 4 4 4 4 4 4 4 4 4 4 5 5 6
1 3 10 9 3 5 5 6 7 9 7 4 1 2 3 3 4 5 4 4 4 4 3 3 3 3 2 2 3 3 4 5 4 4 4 4 5 5 4 4 5 5 5 6
3 4 8 5 1 3 2 5 4 6 5 3 4 1 5 2 2 3 3 3 3 2 2 3 3 2 2 3 3 5 5 5 5 4 4 5 5 5 4 4 5 5 6 6
6 7 11 7 2 3 3 6 2 4 4 5 6 6 3 1 2 2 3 3 2 2 2 3 3 2 3 4 5 6 5 5 5 4 5 5 5 4 4 5 5 6 7 7
6 7 12 4 6 7 7 2 1 3 3 4 5 3 2 2 3 3 2 2 2 2 3 3 2 2 4 6 6 4 4 5 5 5 5 4 4 5 4 4 5 6 6 7
11 10 4 4 6 4 2 3 3 3 3 4 4 4 4 3 4 3 3 3 2 3 4 4 3 3 5 6 5 4 4 5 5 5 5 4 4 5 5 4 4 5 5 7
6 9 7 6 6 5 4 5 4 4 4 4 5 5 4 4 4 3 3 3 3 3 4 5 4 4 6 6 4 4 5 6 5 5 5 5 4 4 4 5 5 6 6 7
8 8 6 6 7 7 6 5 5 4 4 5 5 5 5 5 5 4 4 3 3 4 5 7 6 6 6 5 4 5 6 6 6 5 5 5 5 5 6 7 7 8 7 6
10 8 6 6 4 5 5 6 6 6 5 4 5 6 5 5 5 4 4 4 4 5 6 6 6 7 6 5 4 5 6 6 5 5 5 5 6 7 10 11 15 16 15 13
9 5 5 6 4 4 5 6 6 6 6 5 5 5 5 4 4 4 4 5 5 6 6 6 6 7 7 5 5 6 6 6 5 5 5 5 5 6 8 8 10 13 14 15
6 4 5 5 6 4 4 4 4 4 4 4 4 3 3 4 4 5 6 6 5 6 6 6 7 8 7 5 5 6 6 7 7 5 5 6 6 6 6 7 8 6 8 12
6 6 7 4 3 3 3 3 3 3 3 3 3 3 4 5 6 6 6 5 5 6 7 6 7 9 6 5 5 6 6 5 5 5 5 6 6 6 6 7 7 7 6 7
4 4 4 4 6 5 4 4 5 5 5 4 4 5 5 5 5 6 6 5 5 7 7 7 9 8 6 5 6 6 6 9 8 6 6 6 6 6 6 6 7 7 7 6
4 5 5 5 6 6 5 6 6 6 5 5 6 5 4 4 5 6 7 5 6 7 8 8 9 8 6 6 6 5 5 7 10 7 6 6 6 7 7 7 7 7 7 7
7 7 6 6 6 6 6 5 5 5 5 5 4 4 4 5 7 8 7 6 6 8 9 8 8 7 7 6 5 5 5 5 5 6 6 6 7 7 7 7 8 8 7 7
4 5 5 5 5 5 5 5 5 5 4 4 4 5 6 6 7 7 6 6 7 9 9 7 9 7 7 8 7 5 5 6 7 6 6 9 9 7 7 7 7 7 7 6
2 2 2 3 2 3 4 4 3 3 4 3 4 5 6 7 6 6 6 7 8 8 8 8 8 7 7 7 8 5 6 7 7 7 7 7 7 7 7 7 7 7 6 6
2 2 2 2 3 3 3 3 3 4 4 4 5 6 7 8 6 5 5 8 8 7 7 11 7 6 6 7 9 5 6 6 7 7 7 7 7 7 7 7 7 7 6 6
2 2 3 3 3 4 3 3 4 4 5 5 6 7 7 8 7 7 8 8 9 10 7 5 5 8 10 11 6 6 6 7 7 7 7 7 7 7 7 7 7 6 6 5
3 3 4 4 4 4 4 4 4 5 6 7 7 7 8 7 6 6 8 6 5 9 7 6 9 14 16 9 5 6 7 7 7 7 7 7 7 7 7 7 6 6 5 5
4 4 4 4 3 3 6 7 6 5 6 7 8 8 7 6 6 6 7 10 12 13 7 10 15 16 15 6 5 6 7 7 7 7 7 7 6 6 7 7 6 6 5 6
5 4 4 4 4 5 6 6 6 6 7 6 8 8 7 6 7 7 6 7 12 13 8 10 15 16 9 5 6 6 6 7 7 7 6 6 6 6 6 6 6 5 5 5
5 5 5 6 5 5 5 4 5 6 5 6 7 6 5 5 6 7 6 7 10 12 9 7 7 9 6 6 7 7 7 7 8 7 6 6 6 6 6 6 6 5 5 5
5 5 5 5 6 5 5 5 6 7 6 6 8 7 5 5 5 6 7 7 7 7 6 6 6 6 6 6 6 6 6 6 6 6 6 5 5 5 5 6 5 4 4 4
Wind_Direction
253 263 236 239 234 206 205 206 213 238 239 255 246 241 242 234 224 210 223 224 227 242 256 272 283 288 290 291 295 294 293 285 276 280 283 285 287 286 286 278 268 260 256 255
292 287 262 262 246 226 227 227 236 257 267 252 242 226 233 226 211 213 228 236 245 250 251 260 267 274 285 289 293 290 278 274 277 282 287 286 286 289 290 285 278 268 259 256
281 312 326 270 237 208 209 210 199 227 245 244 223 226 227 223 212 216 230 241 248 248 247 252 253 252 262 274 288 290 282 283 284 284 285 284 286 290 284 281 277 274 268 260
293 353 254 248 211 185 207 237 218 234 249 233 229 241 242 215 205 223 233 239 245 245 249 252 250 257 265 275 282 285 284 284 284 281 282 285 285 280 278 276 274 272 271 265
175 267 278 290 245 176 192 266 220 222 242 242 226 9 301 231 203 216 224 230 236 239 239 245 256 258 268 280 283 281 279 279 280 278 280 284 282 280 278 276 278 273 271 266
178 229 252 257 211 169 129 283 242 199 213 191 132 182 266 244 210 232 242 243 243 247 248 257 267 261 261 273 277 272 272 275 279 276 272 273 274 277 275 270 272 277 276 267
208 239 264 256 207 130 185 254 232 186 190 173 188 213 241 233 236 234 241 251 255 256 256 257 259 247 261 269 266 266 273 280 282 275 269 269 273 271 275 278 282 280 279 277
184 216 253 215 148 186 219 241 180 189 191 196 221 245 253 242 247 254 260 264 258 260 271 271 254 242 263 268 268 274 278 280 280 277 274 275 271 276 272 269 278 282 283 285
198 218 244 187 204 222 195 207 214 208 220 209 226 244 248 251 253 259 258 262 259 256 275 281 264 240 257 270 277 281 281 279 281 281 276 268 263 271 277 267 267 276 276 280
247 260 256 249 245 244 219 221 230 224 222 206 223 239 247 254 257 261 262 260 258 263 272 278 275 262 257 270 275 273 275 279 279 279 282 276 263 255 259 263 264 268 271 274
251 267 283 262 234 232 231 227 232 232 221 216 218 234 237 246 252 253 259 262 253 253 261 269 275 275 273 269 266 269 272 274 275 270 270 275 269 255 254 249 246 257 263 262
236 232 218 249 240 219 217 228 226 225 234 227 215 228 235 241 246 249 255 258 261 260 262 269 272 274 275 268 254 259 273 273 270 270 270 269 275 283 263 257 266 265 264 266
240 241 224 249 253 226 223 231 228 223 223 229 232 226 229 240 248 250 256 259 258 261 264 270 273 275 273 264 253 251 260 269 272 271 270 273 274 279 291 289 271 268 270 274
240 236 253 247 246 241 235 239 231 226 227 223 227 231 233 243 254 257 260 261 263 268 271 272 272 274 272 262 255 257 260 265 267 266 267 270 271 271 273 282 292 289 280 279
236 222 232 247 252 252 237 223 222 235 236 239 229 233 236 242 254 263 268 272 273 272 271 270 272 276 276 264 259 261 264 265 264 265 267 268 269 270 271 272 275 281 287 284
238 233 235 243 248 247 238 226 228 238 235 236 240 243 242 246 258 270 275 268 265 272 274 274 273 275 275 266 265 266 264 268 271 269 270 270 268 269 270 270 272 274 276 278
211 235 234 241 243 242 235 231 231 236 236 240 244 248 253 263 273 276 276 268 257 263 268 268 271 275 271 262 259 263 266 271 274 273 267 267 269 268 268 268 269 271 270 270
221 229 231 230 231 236 242 238 234 233 235 239 243 246 250 254 262 272 279 287 287 283 274 262 261 268 268 262 257 258 261 266 267 267 270 270 271 267 266 266 268 270 273 273
232 232 237 237 231 226 234 238 238 237 240 237 236 244 250 255 259 267 276 280 279 282 281 270 273 273 270 268 268 257 258 265 270 269 268 273 277 269 266 266 266 267 269 270
249 245 240 245 241 231 238 245 244 248 250 240 246 259 266 266 262 264 267 267 258 254 265 277 281 274 269 267 269 257 255 260 267 271 271 268 269 270 268 266 266 265 265 266
251 255 255 256 262 258 247 241 241 254 261 249 246 255 263 270 268 262 264 276 274 258 260 272 272 268 269 271 275 260 258 262 265 268 270 271 271 271 270 268 266 265 264 263
258 252 253 254 261 275 273 258 252 259 267 265 260 259 265 272 272 266 252 252 266 275 277 267 265 271 277 281 266 261 262 263 266 267 268 269 269 271 271 268 266 265 262 260
254 251 254 256 259 270 282 274 260 258 262 263 263 261 260 261 260 263 276 267 257 274 277 266 272 280 286 283 264 262 263 263 264 264 265 266 266 267 269 269 266 264 262 261
255 254 255 257 258 270 277 276 268 260 257 261 260 256 255 265 268 250 249 271 279 283 277 276 283 287 290 277 263 262 262 262 262 263 263 265 266 266 265 266 266 263 261 259
259 260 261 261 262 263 264 272 277 272 266 265 264 258 247 238 250 266 265 265 273 282 279 279 283 286 283 268 263 262 261 260 262 263 260 262 263 264 263 262 261 260 259 257
259 260 260 255 254 260 263 264 267 271 270 274 275 267 255 247 248 257 264 265 265 274 275 271 272 276 270 266 265 264 264 269 273 267 261 262 262 261 261 260 259 259 258 258
264 263 266 269 264 252 249 251 257 263 261 261 271 274 267 262 259 260 262 265 267 266 266 266 264 262 264 265 265 264 262 262 262 262 261 259 258 258 258 256 257 257 255 253